This demonstration page uses our WeatherBlox Daily Observations layout. Learn more.

Left ArrowRight Arrow

40.92945, -100.16068

Hourly Observations for September 28, 2016

Temp ( °F °C ) Dew Point ( °F °C ) Humidity (%) Winds ( mph kmh ) Pressure ( in mb ) Visibility ( mi km ) Precip ( " mm )
12:15 am 00:15 Clear 50 10 44 6.6 80 80 W 6 9 30.06 1018 10 16 N/A
12:35 am 00:35 Clear 51 10.4 44 6.9 79 79 W 7 11 30.03 1017 10 16 N/A
12:55 am 00:55 Clear 49 9.5 44 6.5 82 82 WNW 7 11 30.06 1018 10 16 N/A
1:15 am 01:15 Clear 50 10.1 44 6.5 79 79 WNW 7 11 30.06 1018 10 16 N/A
1:35 am 01:35 Clear 50 10 44 6.6 80 80 NW 8 13 30.06 1018 10 16 N/A
1:55 am 01:55 Clear 49 9.5 44 6.6 82 82 NW 6 9 30.06 1018 10 16 N/A
2:15 am 02:15 Clear 48 8.9 43 6 82 82 NW 7 11 30.06 1018 10 16 N/A
2:35 am 02:35 Clear 47 8.6 42 5.7 82 82 NW 6 9 30.06 1018 10 16 N/A
2:55 am 02:55 Clear 47 8.3 42 5.7 84 84 NW 8 13 30.06 1018 10 16 N/A
3:15 am 03:15 Clear 48 8.8 42 5.8 82 82 NW 8 13 30.06 1018 10 16 N/A
3:35 am 03:35 Clear 47 8.2 42 5.7 84 84 NW 6 9 30.06 1018 10 16 N/A
3:55 am 03:55 Clear 46 7.9 42 5.6 86 86 NW 5 7 30.06 1018 10 16 N/A
4:15 am 04:15 Clear 45 7 41 5 87 87 NW 5 7 30.09 1019 10 16 N/A
4:35 am 04:35 Clear 45 7 41 5 87 87 WNW 5 7 30.09 1019 10 16 N/A
4:55 am 04:55 Clear 45 7.1 41 5.2 88 88 WNW 5 7 30.06 1018 10 16 N/A
5:15 am 05:15 Clear 45 7.1 42 5.3 88 88 WNW 6 9 30.12 1020 10 16 N/A
5:35 am 05:35 Clear 44 6.8 41 5 88 88 WNW 8 13 30.12 1020 10 16 N/A
5:55 am 05:55 Clear 44 6.7 41 5 89 89 NW 6 9 30.15 1021 10 16 N/A
6:15 am 06:15 Clear 44 6.6 41 5 90 90 W 5 7 30.15 1021 10 16 N/A
6:35 am 06:35 Clear 43 6.1 40 4.5 90 90 WNW 7 11 30.15 1021 10 16 N/A
6:55 am 06:55 Clear 42 5.7 40 4.2 90 90 NNW 3 6 30.15 1021 10 16 N/A
7:15 am 07:15 Clear 43 6 40 4.5 90 90 N N/A 30.18 1022 7 11 N/A
7:35 am 07:35 Sunny 42 5.6 39 4 90 90 W 6 9 30.18 1022 10 16 N/A
7:55 am 07:55 Sunny 42 5.6 39 4.1 90 90 WNW 5 7 30.21 1023 10 16 N/A
8:15 am 08:15 Sunny 45 7.1 42 5.5 90 90 WNW 6 9 30.21 1023 10 16 N/A
8:35 am 08:35 Sunny 48 8.9 44 6.6 86 86 WNW 5 7 30.18 1022 10 16 N/A
8:55 am 08:55 Sunny 51 10.6 45 7.3 80 80 WNW 3 6 30.18 1022 10 16 N/A
9:15 am 09:15 Sunny 54 12.2 45 7.3 72 72 NW 3 6 30.18 1022 10 16 N/A
9:35 am 09:35 Sunny 56 13.6 46 7.5 67 67 NW 3 6 30.18 1022 10 16 N/A
9:55 am 09:55 Sunny 59 15 46 7.5 61 61 N 3 6 30.15 1021 10 16 N/A
10:15 am 10:15 Sunny 61 16.3 44 6.5 53 53 NNE 5 7 30.15 1021 10 16 N/A
10:35 am 10:35 Sunny 64 17.7 40 4.7 42 42 NNE 8 13 30.15 1021 10 16 N/A
10:55 am 10:55 Sunny 66 18.9 41 4.8 40 40 NNE 6 9 30.15 1021 10 16 N/A
11:15 am 11:15 Sunny 67 19.5 39 4.1 36 36 NNE 6 9 30.15 1021 7 11 N/A
11:35 am 11:35 Mostly Cloudy with Haze 68 20.2 39 3.7 34 34 NNE 9 15 30.15 1021 1 1 N/A
11:55 am 11:55 Sunny 70 20.9 38 3.6 32 32 NNE 8 13 30.15 1021 10 16 N/A
12:15 pm 12:15 Sunny 70 21 40 4.4 34 34 NNE 8 13 30.15 1021 10 16 N/A
12:35 pm 12:35 Sunny 71 21.8 40 4.3 32 32 NE 12 19 30.15 1021 10 16 N/A
12:55 pm 12:55 Sunny 72 22.4 39 3.9 30 30 NNE 10 17 30.12 1020 10 16 N/A
1:15 pm 13:15 Sunny 73 22.8 40 4.2 30 30 NNE 7 11 30.12 1020 7 11 N/A
1:35 pm 13:35 Hazy 73 22.8 40 4.3 30 30 NE 10 17 30.12 1020 3 5 N/A
1:55 pm 13:55 Hazy 74 23.3 40 4.2 29 29 NNE 10 17 30.12 1020 4 6 N/A
2:15 pm 14:15 Sunny 74 23.2 39 4 29 29 N 13 20 30.09 1019 10 16 N/A
2:35 pm 14:35 Sunny 75 23.8 38 3.6 27 27 NE 14 22 30.09 1019 7 11 N/A
2:55 pm 14:55 Sunny 75 23.7 36 2.4 25 25 N 14 22 30.09 1019 10 16 N/A
3:15 pm 15:15 Sunny 75 24 36 2.2 24 24 N 13 20 30.09 1019 10 16 N/A
3:35 pm 15:35 Sunny 75 23.8 35 1.9 24 24 NNE 10 17 30.09 1019 10 16 N/A
3:55 pm 15:55 Sunny 75 24 35 1.6 23 23 NE 14 22 30.12 1020 10 16 N/A
4:15 pm 16:15 Mostly Cloudy with Haze 75 23.8 35 1.6 23 23 NNE 6 9 30.09 1019 1 1 N/A
4:35 pm 16:35 Mostly Cloudy with Haze 75 24 33 0.7 22 22 N 10 17 30.12 1020 1 1 N/A
4:55 pm 16:55 Mostly Cloudy with Haze 75 23.7 33 0.6 22 22 NE 8 13 30.12 1020 1 1 N/A
5:15 pm 17:15 Mostly Cloudy with Haze 74 23.4 32 0.2 22 22 NE 6 9 30.12 1020 2 2 N/A
5:35 pm 17:35 Mostly Cloudy with Haze 74 23.2 32 -0.2 21 21 NE 7 11 30.12 1020 1 2 N/A
5:55 pm 17:55 Mostly Cloudy with Haze 73 22.7 29 -1.5 20 20 NNE 8 13 30.12 1020 1 2 N/A
6:15 pm 18:15 Mostly Cloudy with Haze 72 22.1 31 -0.6 22 22 ENE 9 15 30.12 1020 0 0 N/A
6:35 pm 18:35 Mostly Cloudy with Haze 68 20 35 1.8 30 30 ENE 9 15 30.18 1022 5 8 N/A
6:55 pm 18:55 Mostly Cloudy with Haze 65 18.6 35 1.6 32 32 ENE 9 15 30.21 1023 5 8 N/A
7:15 pm 19:15 Mostly Cloudy with Haze 61 16.1 38 3.5 43 43 ENE 9 15 30.21 1023 5 8 N/A
7:35 pm 19:35 Mostly Cloudy with Haze 58 14.5 39 4.1 50 50 ENE 8 13 30.24 1024 1 1 N/A
7:55 pm 19:55 Clear 56 13.4 41 4.9 57 57 ENE 8 13 30.24 1024 7 11 N/A
8:15 pm 20:15 Clear 55 12.9 42 5.5 61 61 ENE 7 11 30.27 1025 10 16 N/A
8:35 pm 20:35 Clear 54 12.1 42 5.8 66 66 ENE 8 13 30.30 1026 10 16 N/A
8:55 pm 20:55 Clear 52 11.1 42 5.8 70 70 ENE 8 13 30.30 1026 10 16 N/A
9:15 pm 21:15 Clear 54 12.1 43 6.3 68 68 ENE 6 9 30.33 1027 10 16 N/A
9:35 pm 21:35 Clear 52 11.1 43 6.3 73 73 ENE 6 9 30.33 1027 10 16 N/A
9:55 pm 21:55 Clear 51 10.6 43 6.2 74 74 E 5 7 30.33 1027 10 16 N/A
10:15 pm 22:15 Clear 52 11.1 43 6.2 72 72 N N/A 30.33 1027 10 16 N/A
10:35 pm 22:35 Clear 51 10.8 43 6 72 72 N N/A 30.33 1027 10 16 N/A
10:55 pm 22:55 Clear 51 10.7 42 5.8 72 72 E 3 6 30.36 1028 10 16 N/A
11:15 pm 23:15 Clear 51 10.6 42 5.5 71 71 N N/A 30.36 1028 10 16 N/A
11:35 pm 23:35 Clear 48 9.1 42 5.3 77 77 N N/A 30.39 1029 10 16 N/A
11:55 pm 23:55 Clear 48 9.1 42 5.4 78 78 N N/A 30.39 1029 7 11 N/A

Powered by AerisWeather